This demonstration page uses our WeatherBlox Daily Observations layout. Learn more.

Left ArrowRight Arrow

Hourly Observations for April 26, 2015

Temp ( °F °C ) Dew Point ( °F °C ) Humidity (%) Winds ( mph kmh ) Pressure ( in mb ) Visibility ( mi km ) Precip ( " mm )
12:53 am 00:53 Cloudy 37 2.8 30 -1.1 76 76 NW 10 17 30.04 1017 10 16 0.00 0.00
1:53 am 01:53 Cloudy 36 2.2 29 -1.7 76 76 NNW 10 17 30.06 1018 10 16 0.00 0.00
2:53 am 02:53 Cloudy 35 1.7 28 -2.2 76 76 NNW 14 22 30.06 1018 10 16 0.00 0.00
3:53 am 03:53 Cloudy 34 1.1 27 -2.8 76 76 WNW 10 17 30.09 1019 10 16 0.00 0.00
4:53 am 04:53 Cloudy 33 0.6 26 -3.3 75 75 NW 14 22 30.11 1020 10 16 0.00 0.00
5:53 am 05:53 Cloudy 34 1.1 26 -3.3 73 73 NW 10 17 30.14 1021 10 16 0.00 0.00
6:53 am 06:53 Cloudy 34 1.1 26 -3.3 73 73 NW 8 13 30.15 1021 10 16 0.00 0.00
7:53 am 07:53 Cloudy 35 1.7 26 -3.3 70 70 NW 10 17 30.18 1022 10 16 0.00 0.00
8:53 am 08:53 Cloudy 35 1.7 27 -2.8 72 72 W 7 11 30.21 1023 10 16 0.00 0.00
9:53 am 09:53 Cloudy 37 2.8 28 -2.2 70 70 NW 9 15 30.22 1023 10 16 0.00 0.00
10:53 am 10:53 Cloudy 37 2.8 28 -2.2 70 70 WNW 10 17 30.23 1024 10 16 0.00 0.00
11:53 am 11:53 Cloudy 39 3.9 29 -1.7 67 67 NW 10 17 30.24 1024 10 16 0.00 0.00
12:53 pm 12:53 Cloudy 39 3.9 29 -1.7 67 67 W 8 13 30.25 1024 10 16 0.00 0.00
1:53 pm 13:53 Cloudy 40 4.4 29 -1.7 65 65 W 7 11 30.26 1025 10 16 0.00 0.00
2:53 pm 14:53 Cloudy 41 5 29 -1.7 62 62 NNW 6 9 30.26 1025 10 16 0.00 0.00
3:30 pm 15:30 Cloudy 43 6 28 -2 57 57 WNW 5 7 30.24 1024 10 16 0.00 0.00
3:53 pm 15:53 Cloudy 42 5.6 29 -1.7 60 60 Calm 30.27 1025 10 16 0.00 0.00
4:53 pm 16:53 Cloudy 42 5.6 29 -1.7 60 60 Calm 30.27 1025 10 16 0.00 0.00
5:53 pm 17:53 Cloudy 43 6.1 30 -1.1 60 60 SSW 3 6 30.28 1025 10 16 0.00 0.00
6:53 pm 18:53 Cloudy 44 6.7 30 -1.1 58 58 Calm 30.27 1025 10 16 0.00 0.00
7:53 pm 19:53 Mostly Sunny 43 6.1 30 -1.1 60 60 Calm 30.27 1025 10 16 0.00 0.00
8:53 pm 20:53 Mostly Cloudy 41 5 30 -1.1 65 65 SSE 3 6 30.29 1026 10 16 0.00 0.00
9:53 pm 21:53 Clear 34 1.1 28 -2.2 79 79 S 7 11 30.31 1026 10 16 0.00 0.00
10:53 pm 22:53 Clear 33 0.6 27 -2.8 78 78 S 3 6 30.32 1027 10 16 0.00 0.00
11:53 pm 23:53 Clear 31 -0.6 27 -2.8 85 85 Calm 30.31 1027 10 16 0.00 0.00

Powered by AerisWeather